(459680) = 2005 JS148 = 2009 HB69 = 2013 LV33

Discovered at Kitt Peak on 2005-05-03 by Spacewatch.

Orbit

Orbit type: Main Belt

Note: WebGL enabled browser required.

epoch2024-03-31.0
epoch JD2460400.5
perihelion date2021-03-05.65914
perihelion JD2459279.15914
argument of perihelion (°)172.68616
ascending node (°)79.89743
inclination (°)2.25531
eccentricity0.1631866
perihelion distance (AU)2.0581780
Tisserand w.r.t. Jupiter3.5
ΔV w.r.t. Earth (km/sec)9.0
semimajor axis (AU)2.4595423
mean anomaly (°)286.52337
mean daily motion (°/day)0.25551850
aphelion distance (AU)2.861
period (years)3.86
P-vector [x]-0.29921700
P-vector [y]-0.87742840
P-vector [z]-0.37495145
Q-vector [x]0.95339825
Q-vector [y]-0.25896549
Q-vector [z]-0.15481814
absolute magnitude17.67
phase slope0.15
uncertainty0
referenceMPEC 2024-E73
observations used150
oppositions10
arc length (days)6881
first opposition used2005
last opposition used2024
residual rms (arc-secs)0.85
perturbers coarse indicatorM-v
perturbers precise indicator003Ek
first observation date used2005-05-03.0
last observation date used2024-03-05.0
computer nameMPCLINUX
JD of orbit computation2457424.660431
perihelion JD uncertainty (days)6.8098E-05
argument of perihelion uncertainty (°)1.2236E-04
ascending node uncertainty (°)1.2112E-04
inclination uncertainty (°)6.2086E-06
eccentricity uncertainty 6.6974E-08
perihelion distance uncertainty (AU)1.6724E-07
Minimum Orbit Intersection Distances (in AU)
for orbit epoch: 2460400.5, reference: E2024-G88
Mercury1.59274
Venus1.33235
Earth1.04362
Mars0.52813
Jupiter2.17066
Saturn6.19312
Uranus15.9288
Neptune27.0135

Observations

152 total observations over interval: 2005 05 03.15392 – 2024 03 05.238068
These data are available for download (format description).

